QPF
0.00 0.00 0.00 0.00 0.00 0.00 0.00 0.00 0.00 0.01 0.00 0.00 0.00 0.00 0.01 0.02 0.03 0.03 0.05 0.08 0.09 0.09 0.13 0.11 0.11 0.11 0.10 0.11 0.09 0.08 0.09 0.09 0.11 0.11 0.09 0.07 0.07 0.06 0.05 0.05 0.05 0.04 0.03 0.03
0.00 0.00 0.00 0.00 0.00 0.00 0.00 0.00 0.00 0.01 0.00 0.00 0.00 0.00 0.00 0.01 0.05 0.06 0.06 0.09 0.10 0.06 0.08 0.08 0.08 0.09 0.08 0.09 0.08 0.07 0.08 0.08 0.08 0.08 0.07 0.07 0.06 0.05 0.05 0.05 0.04 0.02 0.01 0.01
0.00 0.00 0.00 0.00 0.00 0.00 0.00 0.01 0.01 0.01 0.00 0.00 0.01 0.01 0.01 0.01 0.02 0.05 0.06 0.06 0.08 0.06 0.06 0.05 0.06 0.09 0.08 0.07 0.07 0.07 0.07 0.06 0.07 0.07 0.06 0.06 0.05 0.04 0.03 0.03 0.02 0.01 0.00 0.01
0.00 0.00 0.00 0.00 0.00 0.00 0.00 0.01 0.00 0.00 0.00 0.01 0.02 0.04 0.03 0.02 0.02 0.02 0.03 0.04 0.06 0.06 0.04 0.03 0.05 0.06 0.06 0.05 0.05 0.07 0.09 0.07 0.06 0.06 0.06 0.05 0.03 0.03 0.03 0.03 0.02 0.01 0.00 0.00
0.00 0.00 0.00 0.00 0.00 0.00 0.00 0.00 0.00 0.00 0.00 0.01 0.01 0.02 0.03 0.02 0.02 0.02 0.02 0.02 0.04 0.05 0.04 0.03 0.04 0.04 0.04 0.04 0.05 0.06 0.08 0.09 0.07 0.06 0.05 0.04 0.03 0.03 0.02 0.02 0.01 0.01 0.01 0.00
0.00 0.00 0.00 0.00 0.00 0.00 0.00 0.00 0.00 0.01 0.02 0.05 0.02 0.01 0.02 0.01 0.02 0.02 0.01 0.01 0.03 0.04 0.04 0.04 0.05 0.04 0.03 0.04 0.05 0.06 0.06 0.07 0.07 0.06 0.04 0.03 0.03 0.03 0.02 0.01 0.01 0.01 0.01 0.00
0.00 0.00 0.00 0.00 0.00 0.00 0.00 0.00 0.04 0.09 0.14 0.11 0.04 0.01 0.01 0.00 0.01 0.01 0.01 0.01 0.02 0.03 0.02 0.03 0.03 0.03 0.03 0.03 0.05 0.06 0.05 0.05 0.05 0.04 0.02 0.01 0.02 0.02 0.02 0.01 0.01 0.01 0.01 0.01
0.00 0.00 0.01 0.00 0.00 0.00 0.01 0.01 0.04 0.10 0.11 0.10 0.07 0.02 0.00 0.00 0.00 0.00 0.00 0.00 0.01 0.01 0.01 0.01 0.01 0.01 0.01 0.01 0.02 0.03 0.04 0.04 0.04 0.03 0.02 0.02 0.01 0.01 0.01 0.01 0.01 0.01 0.01 0.00
0.00 0.00 0.01 0.01 0.01 0.00 0.00 0.00 0.00 0.01 0.03 0.05 0.07 0.05 0.03 0.01 0.00 0.00 0.00 0.00 0.00 0.00 0.00 0.01 0.00 0.01 0.01 0.01 0.01 0.02 0.03 0.03 0.03 0.03 0.03 0.02 0.01 0.01 0.01 0.01 0.01 0.00 0.00 0.00
0.00 0.00 0.01 0.01 0.01 0.00 0.00 0.00 0.00 0.01 0.03 0.07 0.11 0.09 0.07 0.03 0.00 0.00 0.00 0.00 0.00 0.00 0.00 0.01 0.01 0.00 0.01 0.01 0.01 0.02 0.02 0.02 0.03 0.02 0.02 0.02 0.01 0.01 0.01 0.00 0.00 0.00 0.00 0.00
0.00 0.00 0.01 0.01 0.01 0.01 0.01 0.01 0.00 0.01 0.01 0.04 0.14 0.15 0.07 0.03 0.00 0.00 0.00 0.00 0.00 0.00 0.00 0.01 0.02 0.02 0.01 0.01 0.01 0.01 0.01 0.02 0.02 0.02 0.01 0.01 0.01 0.01 0.00 0.00 0.00 0.00 0.00 0.00
0.00 0.00 0.01 0.01 0.02 0.01 0.01 0.01 0.01 0.02 0.01 0.00 0.04 0.07 0.03 0.02 0.00 0.00 0.00 0.00 0.00 0.00 0.00 0.01 0.01 0.03 0.01 0.00 0.00 0.00 0.01 0.01 0.01 0.01 0.01 0.01 0.01 0.00 0.00 0.00 0.00 0.00 0.00 0.00
0.01 0.01 0.01 0.02 0.02 0.01 0.01 0.00 0.00 0.00 0.00 0.01 0.02 0.04 0.03 0.01 0.01 0.01 0.00 0.00 0.00 0.00 0.00 0.01 0.01 0.01 0.00 0.00 0.00 0.00 0.00 0.01 0.01 0.01 0.01 0.01 0.00 0.00 0.00 0.00 0.00 0.00 0.00 0.00
0.01 0.00 0.01 0.03 0.05 0.05 0.03 0.02 0.01 0.01 0.01 0.00 0.00 0.02 0.03 0.02 0.01 0.01 0.00 0.00 0.00 0.00 0.01 0.01 0.01 0.01 0.00 0.00 0.00 0.00 0.00 0.00 0.01 0.01 0.01 0.00 0.00 0.00 0.00 0.00 0.00 0.00 0.00 0.00
0.00 0.01 0.00 0.01 0.04 0.07 0.06 0.04 0.02 0.01 0.01 0.01 0.01 0.01 0.02 0.02 0.02 0.01 0.00 0.00 0.00 0.01 0.01 0.00 0.00 0.00 0.00 0.00 0.00 0.00 0.00 0.00 0.00 0.00 0.00 0.00 0.00 0.00 0.00 0.00 0.00 0.00 0.00 0.00
0.02 0.02 0.01 0.01 0.02 0.04 0.05 0.03 0.02 0.01 0.01 0.01 0.01 0.01 0.03 0.03 0.03 0.02 0.01 0.00 0.00 0.00 0.00 0.00 0.00 0.00 0.00 0.00 0.00 0.00 0.00 0.00 0.00 0.00 0.00 0.00 0.00 0.00 0.00 0.00 0.00 0.00 0.00 0.00
0.08 0.08 0.06 0.03 0.01 0.02 0.02 0.01 0.01 0.01 0.01 0.00 0.00 0.01 0.02 0.01 0.01 0.02 0.01 0.00 0.00 0.00 0.00 0.00 0.00 0.00 0.00 0.00 0.00 0.00 0.00 0.00 0.00 0.00 0.00 0.00 0.00 0.00 0.00 0.00 0.00 0.00 0.00 0.00
0.05 0.09 0.09 0.05 0.05 0.06 0.01 0.01 0.01 0.01 0.00 0.00 0.00 0.01 0.01 0.02 0.01 0.01 0.00 0.00 0.01 0.00 0.00 0.00 0.00 0.00 0.00 0.00 0.00 0.00 0.00 0.00 0.00 0.00 0.00 0.00 0.00 0.01 0.00 0.00 0.00 0.00 0.00 0.00
0.03 0.08 0.09 0.08 0.10 0.05 0.03 0.02 0.01 0.01 0.01 0.00 0.00 0.01 0.01 0.01 0.01 0.00 0.00 0.01 0.01 0.00 0.00 0.00 0.00 0.00 0.00 0.00 0.00 0.00 0.00 0.00 0.00 0.00 0.00 0.00 0.00 0.01 0.01 0.00 0.00 0.00 0.00 0.00
0.05 0.10 0.15 0.13 0.13 0.10 0.06 0.05 0.05 0.05 0.06 0.01 0.00 0.00 0.00 0.00 0.01 0.01 0.00 0.00 0.00 0.00 0.00 0.00 0.00 0.00 0.00 0.00 0.00 0.00 0.00 0.00 0.00 0.00 0.00 0.00 0.00 0.00 0.00 0.00 0.00 0.00 0.00 0.00
0.13 0.15 0.14 0.14 0.17 0.11 0.07 0.08 0.07 0.10 0.12 0.03 0.00 0.00 0.00 0.00 0.01 0.00 0.00 0.00 0.00 0.00 0.00 0.00 0.00 0.00 0.00 0.00 0.00 0.00 0.00 0.00 0.00 0.00 0.00 0.00 0.00 0.00 0.00 0.00 0.00 0.00 0.00 0.00
0.16 0.19 0.19 0.20 0.21 0.17 0.10 0.10 0.13 0.12 0.06 0.02 0.01 0.00 0.00 0.00 0.00 0.00 0.00 0.00 0.00 0.00 0.00 0.00 0.00 0.00 0.00 0.00 0.00 0.00 0.00 0.00 0.01 0.01 0.01 0.01 0.01 0.00 0.00 0.00 0.01 0.00 0.00 0.00
0.17 0.21 0.22 0.20 0.18 0.13 0.13 0.14 0.13 0.06 0.03 0.01 0.00 0.00 0.00 0.00 0.00 0.00 0.00 0.00 0.00 0.01 0.00 0.00 0.00 0.01 0.02 0.02 0.01 0.01 0.01 0.01 0.01 0.01 0.01 0.02 0.02 0.01 0.01 0.00 0.00 0.01 0.01 0.01
0.12 0.14 0.22 0.23 0.17 0.15 0.10 0.05 0.06 0.05 0.03 0.02 0.01 0.00 0.00 0.00 0.00 0.00 0.00 0.00 0.00 0.00 0.00 0.00 0.00 0.01 0.01 0.01 0.01 0.01 0.01 0.01 0.01 0.01 0.01 0.01 0.01 0.01 0.01 0.01 0.00 0.01 0.01 0.02
0.08 0.08 0.12 0.17 0.18 0.21 0.15 0.06 0.03 0.04 0.03 0.02 0.00 0.00 0.00 0.00 0.00 0.00 0.00 0.00 0.00 0.00 0.00 0.00 0.01 0.01 0.01 0.01 0.01 0.01 0.01 0.01 0.01 0.01 0.02 0.02 0.01 0.01 0.01 0.01 0.01 0.02 0.02 0.01
0.08 0.10 0.13 0.13 0.12 0.14 0.15 0.08 0.04 0.02 0.01 0.01 0.00 0.00 0.00 0.00 0.00 0.00 0.00 0.00 0.00 0.00 0.00 0.01 0.02 0.02 0.02 0.02 0.02 0.02 0.02 0.02 0.01 0.01 0.01 0.01 0.00 0.01 0.01 0.02 0.02 0.02 0.02 0.01
MSLP
1006.67 1007.01 1007.24 1007.43 1007.62 1007.85 1008.15 1008.48 1008.82 1009.10 1009.27 1009.32 1009.23 1009.05 1008.84 1008.68 1008.61 1008.68 1008.89 1009.21 1009.58 1009.94 1010.24 1010.43 1010.51 1010.52 1010.50 1010.52 1010.62 1010.85 1011.22 1011.68 1012.21 1012.73 1013.21 1013.59 1013.87 1014.05 1014.15 1014.22 1014.30 1014.40 1014.56 1014.75
1006.95 1007.14 1007.23 1007.29 1007.40 1007.62 1007.96 1008.40 1008.86 1009.27 1009.54 1009.64 1009.53 1009.27 1008.93 1008.60 1008.37 1008.30 1008.44 1008.76 1009.20 1009.70 1010.18 1010.57 1010.84 1010.99 1011.07 1011.12 1011.22 1011.39 1011.67 1012.05 1012.49 1012.95 1013.38 1013.73 1013.98 1014.14 1014.23 1014.28 1014.34 1014.44 1014.59 1014.80
1007.04 1007.09 1007.03 1006.98 1007.03 1007.25 1007.66 1008.21 1008.82 1009.37 1009.77 1009.93 1009.84 1009.53 1009.07 1008.59 1008.21 1008.01 1008.06 1008.35 1008.84 1009.45 1010.08 1010.64 1011.08 1011.38 1011.55 1011.65 1011.74 1011.86 1012.06 1012.35 1012.71 1013.10 1013.48 1013.79 1014.03 1014.19 1014.27 1014.33 1014.39 1014.50 1014.67 1014.90
1006.92 1006.83 1006.67 1006.54 1006.57 1006.83 1007.32 1008.01 1008.78 1009.49 1010.02 1010.27 1010.21 1009.86 1009.31 1008.69 1008.16 1007.83 1007.77 1008.01 1008.51 1009.18 1009.93 1010.63 1011.21 1011.64 1011.91 1012.06 1012.14 1012.23 1012.37 1012.59 1012.87 1013.20 1013.54 1013.83 1014.07 1014.23 1014.33 1014.41 1014.49 1014.61 1014.79 1015.04
1006.61 1006.43 1006.20 1006.04 1006.10 1006.43 1007.04 1007.87 1008.81 1009.68 1010.33 1010.67 1010.64 1010.26 1009.64 1008.90 1008.23 1007.75 1007.57 1007.73 1008.20 1008.89 1009.70 1010.50 1011.20 1011.74 1012.09 1012.30 1012.41 1012.49 1012.59 1012.76 1012.99 1013.28 1013.58 1013.87 1014.12 1014.30 1014.43 1014.53 1014.64 1014.77 1014.96 1015.20
1006.18 1005.95 1005.70 1005.57 1005.69 1006.12 1006.86 1007.84 1008.92 1009.93 1010.70 1011.11 1011.10 1010.71 1010.01 1009.16 1008.35 1007.73 1007.42 1007.48 1007.88 1008.55 1009.39 1010.26 1011.04 1011.67 1012.11 1012.39 1012.54 1012.63 1012.73 1012.87 1013.08 1013.35 1013.65 1013.95 1014.21 1014.42 1014.59 1014.71 1014.83 1014.97 1015.15 1015.38
1005.69 1005.46 1005.25 1005.19 1005.40 1005.95 1006.81 1007.91 1009.11 1010.21 1011.05 1011.51 1011.51 1011.09 1010.33 1009.39 1008.46 1007.71 1007.27 1007.21 1007.53 1008.16 1009.00 1009.89 1010.74 1011.45 1011.98 1012.33 1012.55 1012.68 1012.80 1012.95 1013.16 1013.43 1013.74 1014.05 1014.34 1014.59 1014.78 1014.93 1015.06 1015.19 1015.35 1015.54
1005.24 1005.05 1004.91 1004.95 1005.27 1005.92 1006.87 1008.05 1009.30 1010.44 1011.31 1011.76 1011.75 1011.29 1010.48 1009.47 1008.45 1007.60 1007.05 1006.90 1007.13 1007.71 1008.52 1009.43 1010.32 1011.10 1011.72 1012.16 1012.45 1012.65 1012.82 1013.01 1013.24 1013.53 1013.85 1014.18 1014.50 1014.77 1014.99 1015.15 1015.29 1015.40 1015.53 1015.68
1004.88 1004.76 1004.72 1004.87 1005.28 1006.00 1006.99 1008.18 1009.42 1010.52 1011.35 1011.76 1011.71 1011.22 1010.37 1009.31 1008.25 1007.33 1006.72 1006.49 1006.66 1007.18 1007.96 1008.88 1009.81 1010.65 1011.35 1011.88 1012.27 1012.56 1012.79 1013.03 1013.30 1013.61 1013.96 1014.31 1014.64 1014.94 1015.17 1015.34 1015.47 1015.58 1015.67 1015.78
1004.65 1004.62 1004.69 1004.92 1005.40 1006.14 1007.11 1008.24 1009.38 1010.38 1011.10 1011.42 1011.31 1010.78 1009.92 1008.86 1007.80 1006.88 1006.24 1005.98 1006.11 1006.59 1007.35 1008.27 1009.22 1010.12 1010.90 1011.53 1012.01 1012.39 1012.71 1013.01 1013.32 1013.66 1014.02 1014.39 1014.73 1015.03 1015.28 1015.46 1015.59 1015.68 1015.76 1015.84
1004.55 1004.62 1004.78 1005.08 1005.58 1006.29 1007.17 1008.16 1009.12 1009.95 1010.51 1010.71 1010.52 1009.97 1009.12 1008.11 1007.09 1006.22 1005.62 1005.38 1005.50 1005.97 1006.71 1007.62 1008.59 1009.53 1010.38 1011.09 1011.68 1012.15 1012.55 1012.91 1013.27 1013.64 1014.01 1014.38 1014.73 1015.03 1015.28 1015.47 1015.61 1015.70 1015.78 1015.85
1004.54 1004.71 1004.95 1005.30 1005.78 1006.40 1007.13 1007.92 1008.66 1009.25 1009.61 1009.67 1009.40 1008.83 1008.03 1007.10 1006.19 1005.43 1004.91 1004.72 1004.86 1005.33 1006.06 1006.96 1007.94 1008.91 1009.80 1010.59 1011.26 1011.82 1012.30 1012.73 1013.13 1013.52 1013.91 1014.27 1014.61 1014.91 1015.16 1015.36 1015.51 1015.63 1015.72 1015.80
1004.60 1004.86 1005.16 1005.52 1005.95 1006.45 1006.99 1007.53 1008.00 1008.34 1008.48 1008.39 1008.04 1007.47 1006.74 1005.94 1005.17 1004.55 1004.16 1004.06 1004.25 1004.73 1005.45 1006.33 1007.29 1008.27 1009.19 1010.03 1010.77 1011.41 1011.96 1012.45 1012.90 1013.31 1013.70 1014.06 1014.39 1014.68 1014.94 1015.14 1015.32 1015.46 1015.59 1015.70
1004.69 1005.02 1005.36 1005.71 1006.07 1006.42 1006.75 1007.03 1007.23 1007.30 1007.22 1006.98 1006.56 1006.01 1005.38 1004.72 1004.14 1003.69 1003.45 1003.45 1003.70 1004.20 1004.90 1005.74 1006.68 1007.63 1008.56 1009.43 1010.22 1010.92 1011.54 1012.09 1012.57 1013.01 1013.41 1013.77 1014.09 1014.37 1014.62 1014.84 1015.04 1015.21 1015.37 1015.53
1004.80 1005.18 1005.54 1005.87 1006.13 1006.33 1006.45 1006.47 1006.40 1006.22 1005.94 1005.55 1005.09 1004.57 1004.05 1003.56 1003.16 1002.90 1002.82 1002.93 1003.25 1003.75 1004.43 1005.23 1006.11 1007.02 1007.93 1008.80 1009.62 1010.37 1011.05 1011.65 1012.18 1012.65 1013.06 1013.42 1013.74 1014.01 1014.26 1014.49 1014.70 1014.91 1015.10 1015.29
1004.93 1005.33 1005.70 1005.98 1006.15 1006.20 1006.12 1005.91 1005.59 1005.18 1004.71 1004.22 1003.71 1003.24 1002.83 1002.51 1002.30 1002.22 1002.29 1002.52 1002.90 1003.41 1004.05 1004.79 1005.60 1006.45 1007.32 1008.18 1009.01 1009.80 1010.52 1011.18 1011.76 1012.26 1012.70 1013.07 1013.38 1013.65 1013.90 1014.12 1014.35 1014.57 1014.78 1015.00
1005.09 1005.49 1005.83 1006.06 1006.14 1006.05 1005.78 1005.37 1004.84 1004.24 1003.62 1003.03 1002.50 1002.07 1001.77 1001.60 1001.56 1001.66 1001.88 1002.21 1002.63 1003.15 1003.75 1004.42 1005.15 1005.93 1006.74 1007.57 1008.40 1009.22 1009.98 1010.69 1011.32 1011.87 1012.34 1012.72 1013.04 1013.31 1013.55 1013.77 1013.99 1014.21 1014.43 1014.65
1005.29 1005.67 1005.96 1006.13 1006.11 1005.89 1005.48 1004.89 1004.18 1003.43 1002.68 1002.02 1001.47 1001.09 1000.88 1000.84 1000.96 1001.20 1001.55 1001.96 1002.44 1002.96 1003.52 1004.13 1004.77 1005.47 1006.22 1007.01 1007.82 1008.64 1009.44 1010.20 1010.88 1011.48 1011.98 1012.40 1012.73 1013.00 1013.23 1013.44 1013.65 1013.85 1014.06 1014.27
1005.54 1005.86 1006.10 1006.19 1006.08 1005.75 1005.21 1004.48 1003.64 1002.76 1001.93 1001.20 1000.64 1000.29 1000.15 1000.22 1000.46 1000.82 1001.27 1001.77 1002.29 1002.81 1003.33 1003.88 1004.45 1005.07 1005.75 1006.49 1007.28 1008.09 1008.91 1009.70 1010.43 1011.07 1011.62 1012.06 1012.42 1012.70 1012.92 1013.12 1013.30 1013.48 1013.67 1013.86
1005.82 1006.06 1006.22 1006.23 1006.04 1005.62 1004.98 1004.16 1003.22 1002.26 1001.35 1000.58 1000.01 999.68 999.59 999.73 1000.06 1000.51 1001.05 1001.60 1002.16 1002.68 1003.19 1003.68 1004.19 1004.74 1005.35 1006.03 1006.77 1007.57 1008.39 1009.19 1009.95 1010.63 1011.22 1011.69 1012.07 1012.36 1012.59 1012.77 1012.93 1013.08 1013.24 1013.39
1006.09 1006.24 1006.32 1006.25 1005.98 1005.50 1004.80 1003.92 1002.93 1001.91 1000.96 1000.17 999.59 999.26 999.20 999.39 999.77 1000.29 1000.88 1001.48 1002.07 1002.60 1003.09 1003.54 1004.00 1004.48 1005.02 1005.64 1006.33 1007.08 1007.88 1008.68 1009.45 1010.15 1010.76 1011.26 1011.66 1011.96 1012.18 1012.35 1012.49 1012.62 1012.75 1012.87
1006.28 1006.35 1006.34 1006.21 1005.90 1005.38 1004.66 1003.76 1002.76 1001.74 1000.78 999.98 999.39 999.07 999.02 999.22 999.63 1000.18 1000.81 1001.45 1002.05 1002.60 1003.07 1003.50 1003.91 1004.33 1004.80 1005.35 1005.97 1006.66 1007.41 1008.18 1008.93 1009.62 1010.24 1010.75 1011.16 1011.46 1011.69 1011.85 1011.97 1012.07 1012.17 1012.27
1006.33 1006.31 1006.25 1006.08 1005.76 1005.25 1004.56 1003.70 1002.73 1001.75 1000.82 1000.03 999.45 999.13 999.07 999.28 999.69 1000.25 1000.89 1001.55 1002.17 1002.72 1003.20 1003.60 1003.97 1004.34 1004.74 1005.20 1005.74 1006.35 1007.02 1007.73 1008.43 1009.09 1009.68 1010.18 1010.58 1010.88 1011.10 1011.25 1011.36 1011.44 1011.51 1011.59
1006.16 1006.09 1006.00 1005.84 1005.54 1005.09 1004.48 1003.71 1002.83 1001.92 1001.06 1000.32 999.77 999.45 999.40 999.59 1000.00 1000.55 1001.19 1001.85 1002.47 1003.03 1003.50 1003.89 1004.23 1004.54 1004.87 1005.24 1005.68 1006.19 1006.76 1007.38 1008.00 1008.59 1009.14 1009.60 1009.98 1010.26 1010.46 1010.59 1010.67 1010.73 1010.77 1010.82
1005.73 1005.65 1005.57 1005.45 1005.23 1004.88 1004.39 1003.76 1003.03 1002.25 1001.49 1000.83 1000.33 1000.04 999.99 1000.18 1000.56 1001.09 1001.72 1002.37 1003.00 1003.56 1004.02 1004.40 1004.71 1004.97 1005.23 1005.52 1005.85 1006.24 1006.70 1007.19 1007.71 1008.21 1008.68 1009.08 1009.41 1009.65 1009.81 1009.91 1009.96 1009.98 1010.00 1010.02
1005.05 1004.98 1004.95 1004.91 1004.80 1004.61 1004.29 1003.84 1003.28 1002.67 1002.06 1001.51 1001.09 1000.85 1000.81 1000.99 1001.36 1001.88 1002.49 1003.13 1003.75 1004.31 1004.77 1005.14 1005.42 1005.64 1005.83 1006.03 1006.26 1006.53 1006.86 1007.22 1007.61 1008.01 1008.37 1008.69 1008.95 1009.13 1009.24 1009.29 1009.29 1009.27 1009.25 1009.23
Thickness
5805 5794 5790 5802 5812 5812 5813 5807 5803 5808 5820 5809 5798 5791 5791 5792 5785 5778 5772 5765 5760 5757 5758 5756 5755 5755 5753 5751 5749 5748 5746 5744 5743 5741 5740 5740 5739 5740 5740 5738 5737 5736 5735 5733
5792 5789 5807 5820 5823 5818 5812 5803 5802 5809 5819 5809 5797 5792 5796 5790 5782 5778 5771 5764 5759 5755 5753 5752 5752 5752 5751 5749 5747 5745 5743 5742 5741 5741 5740 5740 5739 5739 5738 5736 5735 5734 5733 5732
5787 5804 5821 5816 5813 5808 5805 5800 5798 5799 5808 5811 5795 5784 5784 5785 5784 5778 5772 5766 5762 5757 5752 5750 5750 5749 5748 5746 5745 5745 5743 5742 5741 5741 5740 5740 5737 5736 5734 5733 5732 5732 5732 5730
5798 5815 5817 5812 5809 5807 5795 5811 5809 5803 5793 5784 5785 5758 5771 5780 5776 5772 5769 5765 5761 5758 5755 5752 5750 5748 5747 5747 5747 5745 5742 5741 5741 5740 5739 5736 5733 5731 5732 5732 5731 5731 5730 5729
5797 5811 5810 5805 5811 5812 5806 5816 5810 5804 5791 5777 5777 5763 5770 5782 5771 5771 5771 5769 5764 5761 5758 5754 5752 5750 5749 5749 5747 5743 5741 5739 5739 5738 5738 5736 5735 5734 5734 5732 5729 5729 5727 5727
5806 5822 5822 5818 5824 5821 5817 5809 5802 5792 5773 5748 5762 5763 5766 5780 5780 5778 5776 5774 5769 5764 5760 5757 5756 5753 5750 5749 5746 5742 5738 5736 5737 5737 5737 5735 5734 5733 5731 5728 5726 5726 5726 5725
5790 5807 5823 5827 5810 5813 5808 5785 5760 5743 5731 5729 5756 5761 5778 5797 5801 5792 5783 5779 5775 5769 5763 5759 5755 5752 5749 5747 5745 5741 5737 5734 5735 5735 5735 5734 5732 5731 5728 5727 5726 5726 5725 5723
5773 5779 5804 5813 5806 5798 5799 5788 5755 5731 5728 5736 5748 5754 5784 5810 5811 5805 5796 5789 5780 5773 5768 5763 5758 5754 5752 5749 5745 5741 5736 5734 5734 5734 5733 5732 5731 5730 5729 5728 5728 5726 5726 5724
5779 5780 5806 5813 5815 5807 5791 5790 5794 5770 5760 5745 5740 5756 5781 5798 5801 5801 5795 5789 5782 5777 5773 5767 5762 5759 5755 5751 5747 5743 5738 5735 5734 5733 5731 5731 5730 5730 5729 5728 5727 5726 5724 5722
5791 5777 5793 5802 5805 5808 5807 5802 5790 5772 5749 5736 5731 5733 5745 5773 5784 5793 5792 5788 5785 5781 5776 5771 5766 5762 5759 5755 5750 5746 5741 5737 5734 5733 5731 5730 5729 5728 5727 5727 5725 5724 5722 5720
5792 5774 5778 5784 5780 5784 5792 5791 5786 5780 5772 5744 5722 5728 5769 5780 5790 5794 5796 5794 5789 5784 5780 5774 5769 5765 5761 5757 5752 5747 5742 5738 5735 5734 5733 5731 5729 5728 5726 5725 5723 5721 5719 5717
5784 5777 5766 5776 5793 5797 5791 5787 5780 5761 5761 5766 5750 5746 5789 5794 5800 5802 5801 5799 5795 5790 5786 5780 5774 5767 5762 5758 5754 5749 5745 5741 5738 5736 5733 5731 5729 5728 5725 5724 5722 5720 5717 5716
5766 5758 5746 5751 5765 5777 5779 5787 5785 5780 5773 5765 5757 5756 5792 5799 5802 5804 5804 5802 5797 5792 5788 5783 5776 5770 5765 5761 5757 5752 5748 5744 5741 5738 5734 5731 5729 5727 5725 5723 5721 5719 5716 5714
5762 5754 5748 5739 5747 5755 5756 5768 5774 5770 5764 5768 5773 5770 5779 5788 5794 5800 5804 5803 5799 5793 5789 5783 5777 5772 5768 5764 5759 5755 5751 5748 5744 5739 5735 5731 5729 5727 5724 5723 5720 5717 5715 5713
5755 5748 5755 5760 5764 5759 5754 5755 5763 5763 5772 5769 5776 5780 5783 5789 5795 5799 5804 5804 5798 5792 5788 5784 5778 5773 5769 5765 5761 5757 5753 5749 5746 5740 5736 5732 5729 5727 5724 5721 5718 5716 5713 5712
5747 5740 5745 5747 5760 5757 5750 5755 5761 5765 5774 5776 5784 5789 5804 5804 5805 5803 5802 5801 5796 5792 5789 5786 5781 5776 5771 5767 5763 5759 5755 5751 5746 5740 5736 5733 5729 5725 5722 5719 5717 5714 5711 5709
5732 5731 5725 5728 5748 5746 5738 5757 5763 5768 5779 5781 5781 5792 5805 5800 5798 5797 5799 5801 5798 5795 5792 5788 5784 5779 5774 5770 5766 5760 5756 5752 5746 5741 5737 5733 5728 5724 5721 5718 5715 5711 5708 5706
5721 5721 5721 5724 5728 5714 5754 5781 5778 5776 5784 5796 5801 5802 5805 5804 5805 5807 5809 5805 5801 5798 5796 5792 5788 5783 5778 5774 5768 5763 5757 5751 5745 5740 5736 5732 5727 5723 5719 5716 5712 5709 5706 5703
5735 5723 5716 5716 5714 5728 5757 5770 5771 5767 5770 5796 5796 5798 5802 5806 5802 5802 5808 5808 5804 5802 5801 5797 5794 5789 5782 5775 5769 5762 5756 5750 5744 5739 5735 5731 5727 5722 5717 5713 5710 5707 5703 5700
5734 5724 5711 5708 5703 5706 5739 5762 5771 5766 5753 5783 5790 5791 5795 5797 5780 5784 5803 5807 5805 5804 5803 5798 5794 5789 5781 5776 5770 5760 5754 5748 5742 5739 5735 5732 5727 5721 5716 5712 5708 5704 5700 5696
5709 5706 5703 5703 5702 5715 5740 5754 5756 5732 5739 5769 5782 5786 5788 5786 5785 5791 5801 5802 5802 5800 5799 5797 5792 5785 5780 5776 5768 5758 5752 5747 5744 5740 5735 5730 5724 5719 5714 5709 5705 5701 5696 5693
5692 5694 5695 5697 5693 5701 5733 5739 5728 5733 5757 5766 5772 5780 5783 5784 5789 5792 5793 5794 5794 5793 5792 5791 5785 5780 5777 5773 5764 5755 5750 5748 5743 5738 5731 5726 5720 5716 5712 5706 5701 5697 5692 5688
5691 5693 5690 5691 5695 5712 5721 5725 5732 5745 5751 5760 5767 5773 5777 5778 5779 5782 5783 5784 5785 5785 5783 5784 5779 5773 5770 5766 5760 5751 5747 5745 5739 5732 5726 5721 5716 5711 5708 5702 5696 5691 5687 5684
5690 5694 5689 5687 5697 5708 5718 5728 5734 5742 5748 5756 5764 5768 5770 5770 5772 5773 5774 5775 5776 5776 5775 5775 5771 5764 5759 5758 5754 5749 5744 5739 5733 5726 5720 5716 5710 5705 5701 5697 5693 5687 5684 5681
5688 5686 5685 5683 5693 5704 5715 5719 5728 5736 5742 5751 5756 5760 5762 5762 5762 5764 5763 5764 5766 5767 5766 5765 5761 5755 5751 5749 5745 5741 5737 5732 5725 5719 5713 5709 5705 5701 5696 5692 5689 5686 5683 5681
5690 5686 5682 5682 5691 5693 5699 5714 5724 5728 5734 5740 5744 5748 5753 5754 5752 5754 5753 5754 5754 5754 5754 5751 5749 5746 5743 5740 5735 5732 5729 5724 5716 5710 5706 5703 5699 5695 5691 5686 5683 5682 5679 5676